Simultaneous Nadir Overpasses (SNOs) Predictions

Prediction of SNOs between GOES-16 and NOAA-20 Satellite Orbit:

Table of predicted SNOs for the next 14.0 days since TLE Epoch: 4/29/2023
Index Date Time (GOES-16) GOES-16 Lat,Lon NOAA-20 Lat,Lon Distance(km) Time Diff (sec)
1 04/29/2023 18:30:10 0.02, -75.18 -0.14, -75.77 68.01 80
2 04/30/2023 18:08:46 0.02, -75.18 0.93, -71.25 448.94 80
3 05/02/2023 06:33:14 -0.02, -75.20 0.25, -76.52 149.94 80
4 05/03/2023 06:11:50 -0.02, -75.20 -0.76, -71.99 367.26 80
5 05/04/2023 18:36:26 0.02, -75.21 -0.44, -77.28 235.96 80
6 05/05/2023 18:15:02 0.02, -75.22 0.57, -72.75 281.39 80
7 05/07/2023 06:39:30 -0.02, -75.24 0.60, -78.02 317.00 80
8 05/08/2023 06:18:06 -0.02, -75.24 -0.41, -73.49 200.31 80
9 05/09/2023 18:42:42 0.01, -75.25 -0.78, -78.78 402.86 80
10 05/10/2023 18:21:17 0.01, -75.26 0.24, -74.25 114.70 80
11 05/12/2023 06:45:46 -0.01, -75.28 0.93, -79.52 483.00 80
